Time,TemperatureF,DewpointF,PressureIn,WindDirection,WindDirectionDegrees,WindSpeedMPH,WindSpeedGustMPH,Humidity,HourlyPrecipIn,Conditions,Clouds,dailyrainin,SolarRadiationWatts/m^2,SoftwareType,DateUTC
2013-04-28 00:01:00,64.0,8.0,-100.00,East,79,7.0,11.0,11,0.00,,,0.00,0.000000,,2013-04-28 06:01:00,
2013-04-28 00:12:00,64.0,8.0,-100.00,East,79,7.0,11.0,11,0.00,,,0.00,0.000000,,2013-04-28 06:12:00,
2013-04-28 00:21:00,64.0,8.0,-100.00,East,79,7.0,11.0,11,0.00,,,0.00,0.000000,,2013-04-28 06:21:00,
2013-04-28 00:52:00,65.0,9.0,-100.00,ESE,102,8.0,16.0,11,0.00,,,0.00,0.000000,,2013-04-28 06:52:00,
2013-04-28 01:01:00,65.0,9.0,-100.00,ESE,102,8.0,16.0,11,0.00,,,0.00,0.000000,,2013-04-28 07:01:00,
2013-04-28 01:11:00,65.0,9.0,-100.00,ESE,102,8.0,16.0,11,0.00,,,0.00,0.000000,,2013-04-28 07:11:00,
2013-04-28 01:21:00,65.0,9.0,-100.00,ESE,102,8.0,16.0,11,0.00,,,0.00,0.000000,,2013-04-28 07:21:00,
2013-04-28 01:52:00,64.0,8.0,-100.00,East,101,14.0,19.0,11,0.00,,,0.00,0.000000,,2013-04-28 07:52:00,
2013-04-28 02:02:00,64.0,8.0,-100.00,East,101,14.0,19.0,11,0.00,,,0.00,0.000000,,2013-04-28 08:02:00,
2013-04-28 02:11:00,64.0,8.0,-100.00,East,101,14.0,19.0,11,0.00,,,0.00,0.000000,,2013-04-28 08:11:00,
2013-04-28 02:21:00,64.0,8.0,-100.00,East,101,14.0,19.0,11,0.00,,,0.00,0.000000,,2013-04-28 08:21:00,
2013-04-28 02:52:00,64.0,20.0,-100.00,East,101,16.0,26.0,18,0.00,,,0.00,0.000000,,2013-04-28 08:52:00,
2013-04-28 03:01:00,64.0,20.0,-100.00,East,101,16.0,26.0,18,0.00,,,0.00,0.000000,,2013-04-28 09:01:00,
2013-04-28 03:11:00,64.0,20.0,-100.00,East,101,16.0,26.0,18,0.00,,,0.00,0.000000,,2013-04-28 09:11:00,
2013-04-28 03:21:00,64.0,20.0,-100.00,East,101,16.0,26.0,18,0.00,,,0.00,0.000000,,2013-04-28 09:21:00,
2013-04-28 03:53:00,62.0,22.0,-100.00,ESE,103,15.0,25.0,21,0.00,,,0.00,0.000000,,2013-04-28 09:53:00,
2013-04-28 04:03:00,62.0,22.0,-100.00,ESE,103,15.0,25.0,21,0.00,,,0.00,0.000000,,2013-04-28 10:03:00,
2013-04-28 04:12:00,62.0,22.0,-100.00,ESE,103,15.0,25.0,21,0.00,,,0.00,0.000000,,2013-04-28 10:12:00,
2013-04-28 04:22:00,62.0,22.0,-100.00,ESE,103,15.0,25.0,21,0.00,,,0.00,0.000000,,2013-04-28 10:22:00,
2013-04-28 04:53:00,63.0,26.0,-100.00,East,100,14.0,23.0,24,0.00,,,0.00,0.000000,,2013-04-28 10:53:00,
2013-04-28 05:02:00,63.0,26.0,-100.00,East,100,14.0,23.0,24,0.00,,,0.00,0.000000,,2013-04-28 11:02:00,
2013-04-28 05:11:00,63.0,26.0,-100.00,East,100,14.0,23.0,24,0.00,,,0.00,0.000000,,2013-04-28 11:11:00,
2013-04-28 05:22:00,63.0,26.0,-100.00,East,100,14.0,23.0,24,0.00,,,0.00,0.000000,,2013-04-28 11:22:00,
2013-04-28 05:52:00,61.0,24.0,-100.00,ESE,109,12.0,21.0,24,0.00,,,0.00,0.000000,,2013-04-28 11:52:00,
2013-04-28 06:02:00,61.0,24.0,-100.00,ESE,109,12.0,21.0,24,0.00,,,0.00,0.000000,,2013-04-28 12:02:00,
2013-04-28 06:12:00,61.0,24.0,-100.00,ESE,109,12.0,21.0,24,0.00,,,0.00,0.000000,,2013-04-28 12:12:00,
2013-04-28 06:21:00,61.0,24.0,-100.00,ESE,109,12.0,21.0,24,0.00,,,0.00,0.000000,,2013-04-28 12:21:00,
2013-04-28 06:52:00,61.0,24.0,-100.00,East,92,7.0,19.0,24,0.00,,,0.00,0.000000,,2013-04-28 12:52:00,
2013-04-28 07:02:00,61.0,24.0,-100.00,East,92,7.0,19.0,24,0.00,,,0.00,0.000000,,2013-04-28 13:02:00,
2013-04-28 07:11:00,61.0,24.0,-100.00,East,92,7.0,19.0,24,0.00,,,0.00,0.000000,,2013-04-28 13:11:00,
2013-04-28 07:21:00,61.0,24.0,-100.00,East,92,7.0,19.0,24,0.00,,,0.00,0.000000,,2013-04-28 13:21:00,
2013-04-28 07:52:00,59.0,25.0,-100.00,East,95,0.0,12.0,27,0.00,,,0.00,22.000000,,2013-04-28 13:52:00,
2013-04-28 08:02:00,59.0,25.0,-100.00,East,95,0.0,12.0,27,0.00,,,0.00,22.000000,,2013-04-28 14:02:00,
2013-04-28 08:11:00,59.0,25.0,-100.00,East,95,0.0,12.0,27,0.00,,,0.00,22.000000,,2013-04-28 14:11:00,
2013-04-28 08:22:00,59.0,25.0,-100.00,East,95,0.0,12.0,27,0.00,,,0.00,22.000000,,2013-04-28 14:22:00,
2013-04-28 08:52:00,67.0,32.0,-100.00,SSE,165,7.0,14.0,27,0.00,,,0.00,246.000000,,2013-04-28 14:52:00,
2013-04-28 09:02:00,67.0,32.0,-100.00,SSE,165,7.0,14.0,27,0.00,,,0.00,246.000000,,2013-04-28 15:02:00,
2013-04-28 09:12:00,67.0,32.0,-100.00,SSE,165,7.0,14.0,27,0.00,,,0.00,246.000000,,2013-04-28 15:12:00,
2013-04-28 09:21:00,67.0,32.0,-100.00,SSE,165,7.0,14.0,27,0.00,,,0.00,246.000000,,2013-04-28 15:21:00,
2013-04-28 09:53:00,71.0,30.0,-100.00,SW,233,6.0,11.0,22,0.00,,,0.00,604.000000,,2013-04-28 15:53:00,
2013-04-28 10:03:00,71.0,30.0,-100.00,SW,233,6.0,11.0,22,0.00,,,0.00,604.000000,,2013-04-28 16:03:00,
2013-04-28 10:13:00,71.0,30.0,-100.00,SW,233,6.0,11.0,22,0.00,,,0.00,604.000000,,2013-04-28 16:13:00,
2013-04-28 10:23:00,71.0,30.0,-100.00,SW,233,6.0,11.0,22,0.00,,,0.00,604.000000,,2013-04-28 16:23:00,
2013-04-28 10:52:00,71.0,29.0,-100.00,SW,228,8.0,13.0,21,0.00,,,0.00,855.000000,,2013-04-28 16:52:00,
2013-04-28 11:02:00,71.0,29.0,-100.00,SW,228,8.0,13.0,21,0.00,,,0.00,855.000000,,2013-04-28 17:02:00,
2013-04-28 11:12:00,71.0,29.0,-100.00,SW,228,8.0,13.0,21,0.00,,,0.00,855.000000,,2013-04-28 17:12:00,
2013-04-28 11:22:00,71.0,29.0,-100.00,SW,228,8.0,13.0,21,0.00,,,0.00,855.000000,,2013-04-28 17:22:00,
2013-04-28 11:52:00,73.0,26.0,-100.00,SW,228,7.0,15.0,17,0.00,,,0.00,1065.000000,,2013-04-28 17:52:00,
2013-04-28 12:02:00,73.0,26.0,-100.00,SW,228,7.0,15.0,17,0.00,,,0.00,1065.000000,,2013-04-28 18:02:00,
2013-04-28 12:12:00,73.0,26.0,-100.00,SW,228,7.0,15.0,17,0.00,,,0.00,1065.000000,,2013-04-28 18:12:00,
2013-04-28 12:22:00,73.0,26.0,-100.00,SW,228,7.0,15.0,17,0.00,,,0.00,1065.000000,,2013-04-28 18:22:00,
2013-04-28 12:52:00,75.0,24.0,-100.00,NW,320,7.0,18.0,15,0.00,,,0.00,1232.000000,,2013-04-28 18:52:00,
2013-04-28 13:02:00,75.0,24.0,-100.00,NW,320,7.0,18.0,15,0.00,,,0.00,1232.000000,,2013-04-28 19:02:00,
2013-04-28 13:11:00,75.0,24.0,-100.00,NW,320,7.0,18.0,15,0.00,,,0.00,1232.000000,,2013-04-28 19:11:00,
2013-04-28 13:22:00,75.0,24.0,-100.00,NW,320,7.0,18.0,15,0.00,,,0.00,1232.000000,,2013-04-28 19:22:00,
2013-04-28 13:52:00,72.0,18.0,-100.00,West,271,7.0,18.0,13,0.00,,,0.00,931.000000,,2013-04-28 19:52:00,
2013-04-28 14:02:00,72.0,18.0,-100.00,West,271,7.0,18.0,13,0.00,,,0.00,931.000000,,2013-04-28 20:02:00,
2013-04-28 14:12:00,72.0,18.0,-100.00,West,271,7.0,18.0,13,0.00,,,0.00,931.000000,,2013-04-28 20:12:00,
2013-04-28 14:22:00,72.0,18.0,-100.00,West,271,7.0,18.0,13,0.00,,,0.00,931.000000,,2013-04-28 20:22:00,
2013-04-28 14:52:00,76.0,20.0,-100.00,SW,225,5.0,16.0,12,0.00,,,0.00,468.000000,,2013-04-28 20:52:00,
2013-04-28 15:01:00,76.0,20.0,-100.00,SW,225,5.0,16.0,12,0.00,,,0.00,468.000000,,2013-04-28 21:01:00,
2013-04-28 15:11:00,76.0,20.0,-100.00,SW,225,5.0,16.0,12,0.00,,,0.00,468.000000,,2013-04-28 21:11:00,
2013-04-28 15:22:00,76.0,20.0,-100.00,SW,225,5.0,16.0,12,0.00,,,0.00,468.000000,,2013-04-28 21:22:00,
2013-04-28 15:53:00,79.0,10.0,-100.00,WSW,242,10.0,21.0,7,0.00,,,0.00,1081.000000,,2013-04-28 21:53:00,
2013-04-28 16:03:00,79.0,10.0,-100.00,WSW,242,10.0,21.0,7,0.00,,,0.00,1081.000000,,2013-04-28 22:03:00,
2013-04-28 16:12:00,79.0,10.0,-100.00,WSW,242,10.0,21.0,7,0.00,,,0.00,1081.000000,,2013-04-28 22:12:00,
2013-04-28 16:23:00,79.0,10.0,-100.00,WSW,242,10.0,21.0,7,0.00,,,0.00,1081.000000,,2013-04-28 22:23:00,
2013-04-28 16:52:00,78.0,9.0,-100.00,SW,232,10.0,22.0,7,0.00,,,0.00,858.000000,,2013-04-28 22:52:00,
2013-04-28 17:02:00,78.0,9.0,-100.00,SW,232,10.0,22.0,7,0.00,,,0.00,858.000000,,2013-04-28 23:02:00,
2013-04-28 17:12:00,78.0,9.0,-100.00,SW,232,10.0,22.0,7,0.00,,,0.00,858.000000,,2013-04-28 23:12:00,
2013-04-28 17:22:00,78.0,9.0,-100.00,SW,232,10.0,22.0,7,0.00,,,0.00,858.000000,,2013-04-28 23:22:00,
2013-04-28 17:52:00,78.0,9.0,-100.00,SSW,211,5.0,22.0,7,0.00,,,0.00,737.000000,,2013-04-28 23:52:00,
2013-04-28 18:01:00,78.0,9.0,-100.00,SSW,211,5.0,22.0,7,0.00,,,0.00,737.000000,,2013-04-29 00:01:00,
2013-04-28 18:11:00,78.0,9.0,-100.00,SSW,211,5.0,22.0,7,0.00,,,0.00,737.000000,,2013-04-29 00:11:00,
2013-04-28 18:22:00,78.0,9.0,-100.00,SSW,211,5.0,22.0,7,0.00,,,0.00,737.000000,,2013-04-29 00:22:00,
2013-04-28 18:52:00,77.0,8.0,-100.00,West,278,3.0,19.0,7,0.00,,,0.00,440.000000,,2013-04-29 00:52:00,
2013-04-28 19:01:00,77.0,8.0,-100.00,West,278,3.0,19.0,7,0.00,,,0.00,440.000000,,2013-04-29 01:01:00,
2013-04-28 19:12:00,77.0,8.0,-100.00,West,278,3.0,19.0,7,0.00,,,0.00,440.000000,,2013-04-29 01:12:00,
2013-04-28 19:21:00,77.0,8.0,-100.00,West,278,3.0,19.0,7,0.00,,,0.00,440.000000,,2013-04-29 01:21:00,
2013-04-28 19:52:00,72.0,7.0,-100.00,WNW,282,3.0,14.0,8,0.00,,,0.00,156.000000,,2013-04-29 01:52:00,
2013-04-28 20:02:00,72.0,7.0,-100.00,WNW,282,3.0,14.0,8,0.00,,,0.00,156.000000,,2013-04-29 02:02:00,
2013-04-28 20:11:00,72.0,7.0,-100.00,WNW,282,3.0,14.0,8,0.00,,,0.00,156.000000,,2013-04-29 02:11:00,
2013-04-28 20:21:00,72.0,7.0,-100.00,WNW,282,3.0,14.0,8,0.00,,,0.00,156.000000,,2013-04-29 02:21:00,
2013-04-28 20:52:00,69.0,10.0,-100.00,East,99,1.0,7.0,10,0.00,,,0.00,5.000000,,2013-04-29 02:52:00,
2013-04-28 21:01:00,69.0,10.0,-100.00,East,99,1.0,7.0,10,0.00,,,0.00,5.000000,,2013-04-29 03:01:00,
2013-04-28 21:12:00,69.0,10.0,-100.00,East,99,1.0,7.0,10,0.00,,,0.00,5.000000,,2013-04-29 03:12:00,
2013-04-28 21:21:00,69.0,10.0,-100.00,East,99,1.0,7.0,10,0.00,,,0.00,5.000000,,2013-04-29 03:21:00,
2013-04-28 21:53:00,66.0,12.0,-100.00,East,97,5.0,6.0,12,0.00,,,0.00,0.000000,,2013-04-29 03:53:00,
2013-04-28 22:03:00,66.0,12.0,-100.00,East,97,5.0,6.0,12,0.00,,,0.00,0.000000,,2013-04-29 04:03:00,
2013-04-28 22:13:00,66.0,12.0,-100.00,East,97,5.0,6.0,12,0.00,,,0.00,0.000000,,2013-04-29 04:13:00,
2013-04-28 22:23:00,66.0,12.0,-100.00,East,97,5.0,6.0,12,0.00,,,0.00,0.000000,,2013-04-29 04:23:00,
2013-04-28 22:52:00,65.0,11.0,-100.00,ESE,102,6.0,7.0,12,0.00,,,0.00,0.000000,,2013-04-29 04:52:00,
2013-04-28 23:02:00,65.0,11.0,-100.00,ESE,102,6.0,7.0,12,0.00,,,0.00,0.000000,,2013-04-29 05:02:00,
2013-04-28 23:12:00,65.0,11.0,-100.00,ESE,102,6.0,7.0,12,0.00,,,0.00,0.000000,,2013-04-29 05:12:00,
2013-04-28 23:22:00,65.0,11.0,-100.00,ESE,102,6.0,7.0,12,0.00,,,0.00,0.000000,,2013-04-29 05:22:00,
2013-04-28 23:52:00,66.0,10.0,-100.00,SE,130,3.0,7.0,11,0.00,,,0.00,0.000000,,2013-04-29 05:52:00,